Location: B?dimalle
(17.1788°N, 80.5377°E)
Time: 09:23:32
(UTC+00:00)

Tiros 1 despin weight - Pass Details

Date: 18 February 2026
Orbit: 556 x 593 km, 48.2° (Epoch: 10 March)

Event Time Altitude Azimuth Distance (km) Brightness Sun altitude
Rises 15:45:55 0° 343° (NNW) 2,731 - -44.7°
Reaches altitude 10° 15:49:14 10° 11° (N) 1,842 - -45.5°
Maximum altitude 15:51:19 13° 41° (NE) 1,641 - -46.0°
Drops below altitude 10° 15:53:24 10° 70° (ENE) 1,852 - -46.5°
Sets 15:56:44 0° 98° (E) 2,757 - -47.3°
